Theta_e
309 309 309 310 310 309 309 309 309 309 310 312 313 315 316 315 314 313 314 314 315 315 316 317 318 318 318 321 329 332 332 337 338 339 349 351 347 346 346 348 350 350 349 347 347 347 348
308 308 309 309 309 309 309 309 309 309 309 310 310 311 313 315 316 315 314 314 314 315 316 317 317 318 318 320 329 331 331 335 336 337 342 351 347 346 347 349 350 346 346 347 347 347 346
307 307 308 308 309 309 309 309 309 309 309 309 309 310 311 311 314 316 315 314 314 315 315 316 317 318 317 323 329 333 329 331 333 337 350 348 347 350 350 352 350 348 347 346 346 347 347
306 307 307 307 308 308 309 309 309 309 309 309 309 309 310 310 312 314 316 315 314 314 315 316 316 317 318 321 330 332 333 334 334 336 344 345 340 346 351 347 349 349 345 348 346 346 349
306 306 306 306 307 307 307 308 308 309 309 309 309 309 310 310 311 312 314 316 315 314 315 316 316 317 319 320 325 329 329 334 336 338 340 338 338 348 350 350 349 348 348 349 348 344 344
308 308 307 306 306 306 307 307 308 308 309 309 309 309 310 310 310 312 313 316 315 314 315 316 316 322 320 322 322 327 326 327 331 335 338 340 346 344 342 351 357 351 351 350 349 349 348
308 308 308 308 308 307 306 306 307 307 308 309 309 309 310 310 311 311 313 316 321 322 314 318 318 320 323 322 323 323 325 326 326 332 335 336 337 341 343 347 350 349 351 352 352 349 350
306 307 308 308 308 308 308 307 307 307 307 308 308 309 310 310 310 311 313 316 317 316 316 320 320 320 320 321 323 323 325 326 326 330 334 334 336 336 338 340 342 345 351 353 350 350 348
305 306 306 306 307 308 308 309 308 307 307 307 308 309 310 310 311 311 313 317 318 319 317 319 319 322 322 322 323 324 324 324 329 332 335 336 336 337 339 339 342 348 348 347 348 351 349
307 307 306 306 306 306 307 308 309 309 308 308 307 308 309 311 310 314 319 318 318 320 312 316 319 321 322 324 323 324 324 324 328 332 333 334 334 337 337 337 339 340 342 347 350 345 347
307 308 307 307 307 306 306 307 308 309 309 309 308 308 308 310 311 317 319 319 319 320 316 319 320 323 324 323 323 324 324 324 329 333 333 336 335 335 335 335 338 339 340 344 348 344 343
305 307 307 307 306 306 306 306 306 308 309 310 310 309 308 309 311 316 319 319 319 316 320 324 323 322 321 322 322 322 323 325 328 331 328 331 329 329 330 329 331 331 342 339 337 338 345
305 305 306 307 306 306 306 306 306 306 307 310 311 310 309 309 311 315 318 319 316 319 319 324 323 320 319 320 321 320 321 322 323 328 327 325 326 326 328 328 327 339 338 342 341 344 347
304 305 306 306 305 306 306 306 306 306 306 308 311 311 311 309 310 314 318 315 319 318 319 319 321 318 320 318 320 319 318 319 320 322 321 326 327 326 327 327 329 339 339 339 343 343 341
308 305 305 306 306 306 306 305 306 306 306 307 309 312 312 310 310 313 318 314 315 317 321 320 322 322 322 319 319 319 316 315 317 319 323 321 324 324 327 328 329 330 340 335 336 336 339
305 307 305 305 306 305 306 305 305 306 305 306 309 312 311 309 310 313 313 313 314 316 319 320 323 322 321 321 320 316 315 316 316 319 322 321 324 322 324 325 330 330 330 336 331 342 348
305 304 305 305 304 304 304 304 305 305 305 307 310 316 319 313 310 317 313 312 316 318 318 318 320 321 322 323 318 316 317 318 317 317 320 317 319 321 322 323 323 333 336 333 333 333 340
305 303 304 307 305 304 304 305 305 305 305 308 308 315 314 310 313 308 309 312 315 316 316 316 317 319 321 322 322 319 318 318 321 319 320 317 317 320 320 321 324 331 332 333 334 339 335
307 306 304 304 306 305 305 305 305 305 305 307 308 316 314 313 308 307 309 312 314 314 313 315 318 319 319 320 322 322 319 324 322 319 319 318 317 320 320 319 323 328 332 330 329 331 338
306 308 307 304 305 305 305 306 305 305 305 307 309 315 316 313 313 310 312 314 314 316 314 315 315 317 318 320 318 322 324 325 322 321 322 323 314 319 320 320 322 326 333 333 331 336 334
306 308 308 304 303 305 305 306 305 306 305 306 308 313 316 314 314 313 316 317 319 319 316 316 316 316 317 319 322 322 324 325 325 327 322 320 320 317 318 321 323 324 324 332 333 332 335
307 307 307 304 304 305 306 305 307 306 305 307 310 315 318 317 318 317 315 318 319 319 318 317 316 318 316 317 320 324 325 325 326 323 322 314 320 318 322 320 322 328 334 336 340 330 331
307 307 306 304 305 305 306 307 307 306 306 313 314 314 316 317 315 316 315 318 319 322 320 320 318 319 318 317 321 325 327 325 325 325 317 316 315 317 320 323 322 329 331 342 338 336 335
307 305 304 304 304 304 306 308 306 306 306 308 308 312 316 315 316 319 321 320 322 323 322 323 320 316 321 324 323 325 325 323 322 322 318 314 314 314 317 320 335 336 334 335 334 333 334
306 305 305 305 304 305 307 307 307 306 306 305 305 312 315 314 317 319 319 320 322 322 322 322 321 324 325 323 319 320 320 323 325 322 319 314 315 317 318 320 330 333 332 334 336 331 329
305 305 304 304 304 305 305 306 305 306 306 305 307 314 314 314 314 317 318 318 320 319 319 324 324 324 323 316 319 322 324 323 328 327 317 318 315 320 317 331 334 330 329 329 330 332 327
306 305 304 304 304 305 305 305 305 305 305 305 313 313 314 315 316 317 317 317 318 318 317 317 320 322 323 317 320 322 324 324 328 331 329 322 321 325 332 332 331 327 325 329 334 331 325
307 306 306 306 306 306 305 305 305 305 305 306 312 315 315 316 315 314 316 317 316 317 316 318 320 320 321 318 320 321 321 323 330 331 331 327 324 327 328 331 334 324 326 332 326 325 323
306 306 306 306 306 305 305 306 305 305 305 308 314 315 315 315 314 312 315 318 317 317 316 317 320 320 321 319 320 320 326 325 325 332 326 327 323 325 325 325 322 322 323 324 324 323 323
Wind_Speed
10 9 9 9 8 8 8 7 8 8 7 7 7 8 7 8 7 7 7 6 6 6 5 5 5 5 3 4 3 2 4 7 7 6 5 1 6 3 2 2 2 1 4 10 10 7 10
10 10 10 9 9 9 8 8 8 8 9 8 8 8 9 8 8 7 7 7 6 6 6 5 5 5 3 3 3 1 4 8 5 4 5 3 3 1 3 2 2 4 10 10 7 7 9
10 10 10 10 9 9 9 9 9 9 9 9 9 8 9 8 9 8 7 7 6 6 6 5 5 6 7 8 7 5 5 6 5 3 5 1 3 1 3 2 7 3 2 6 5 6 4
10 10 10 10 10 9 9 9 9 9 9 10 10 9 8 10 9 8 7 7 6 6 6 6 5 6 7 9 12 11 7 6 6 7 7 3 8 4 3 1 6 5 5 2 2 5 3
11 11 11 10 10 10 10 9 9 9 10 10 10 10 9 9 9 8 7 6 5 6 6 5 5 5 6 10 19 10 9 6 4 4 7 7 9 3 0 3 4 6 1 1 6 7 1
12 12 11 11 10 10 10 10 10 10 9 10 10 10 10 10 9 7 5 4 4 5 5 5 8 4 8 0 12 17 11 7 5 4 3 3 1 1 3 4 1 1 3 2 2 4 3
13 12 12 12 11 11 10 11 10 11 10 10 11 11 11 10 9 6 2 2 1 1 6 8 2 5 3 3 4 17 16 11 7 3 0 4 3 6 6 4 3 3 3 4 4 5 2
14 14 13 12 12 12 11 11 11 11 11 11 11 11 10 10 8 6 1 6 9 3 9 13 21 24 25 20 7 11 16 9 5 4 3 5 7 6 3 4 6 6 6 5 5 5 1
15 15 14 14 13 12 13 12 12 11 11 11 11 11 10 9 7 4 3 6 3 4 4 9 18 22 18 10 8 11 14 12 3 3 4 6 6 5 1 4 5 1 7 5 6 0 5
17 16 16 15 14 13 13 13 13 12 12 11 11 11 10 6 3 3 6 3 3 5 4 6 5 7 13 8 5 17 18 14 1 10 5 5 6 6 9 6 4 6 5 6 4 3 2
15 15 16 17 17 15 14 14 14 13 13 12 11 11 9 6 4 4 5 2 5 3 2 3 5 3 15 16 5 11 21 19 8 5 7 8 2 2 4 6 3 9 5 8 0 4 2
17 17 16 17 18 17 15 14 15 14 13 13 11 12 10 9 8 6 3 4 9 5 6 1 7 6 7 7 3 5 12 16 12 5 1 7 1 1 4 5 5 11 2 7 5 3 3
18 16 17 17 19 19 16 15 15 15 14 14 12 12 13 9 3 7 3 8 5 3 5 2 4 6 3 5 2 4 7 6 6 5 5 7 6 3 3 7 4 4 6 3 3 3 5
19 18 18 18 18 19 18 14 14 15 14 15 12 13 14 11 10 8 5 5 3 5 6 5 3 4 6 5 5 3 6 5 2 6 3 6 8 7 4 8 5 4 7 6 6 4 4
18 18 18 17 18 19 19 18 15 14 14 15 12 13 14 8 13 13 7 3 8 6 4 6 3 5 2 3 6 4 7 8 9 8 8 6 6 3 3 2 5 2 2 4 7 2 3
15 19 18 17 18 19 20 19 16 12 12 12 11 10 11 8 15 17 4 5 4 4 6 4 1 1 6 3 5 7 7 7 8 13 9 7 2 6 4 4 2 5 3 3 3 4 3
18 17 17 19 18 19 19 18 16 11 11 9 8 4 2 14 20 13 4 7 5 7 7 4 1 3 3 5 8 6 6 5 10 9 14 6 4 5 3 3 7 1 1 6 5 4 6
18 17 16 18 19 19 17 17 15 13 8 4 3 1 8 24 5 2 4 6 3 3 3 4 2 5 3 4 4 7 10 7 10 13 11 8 5 7 9 4 3 5 7 5 5 5 2
17 19 19 16 17 18 16 16 14 13 10 8 5 1 14 19 3 1 4 2 3 3 2 4 4 4 1 1 3 6 6 11 18 13 13 9 3 2 10 6 2 4 4 4 6 4 6
15 18 20 18 14 16 15 14 11 10 9 8 2 2 5 13 2 5 3 4 4 8 7 8 5 4 1 3 5 4 2 4 11 19 19 17 4 8 8 7 4 3 5 6 5 4 6
13 16 18 18 14 13 13 13 10 8 7 5 1 1 2 3 6 4 3 2 2 3 6 7 3 9 7 4 3 4 5 4 3 2 12 11 9 6 6 5 4 5 4 6 6 6 6
16 15 16 15 13 13 11 11 10 8 5 1 1 3 5 2 3 5 6 4 11 6 5 6 5 3 7 8 9 4 4 1 2 5 4 2 6 7 2 6 7 4 8 10 6 2 1
16 14 13 13 12 11 11 11 10 8 4 1 0 2 3 3 3 3 4 4 3 3 13 24 13 1 5 17 22 17 7 4 4 2 3 5 7 4 7 4 6 5 6 7 6 7 2
14 14 11 11 11 11 10 10 9 8 5 2 2 2 1 3 0 1 3 6 7 4 4 8 13 8 4 10 11 6 1 4 7 5 6 5 5 3 4 3 4 3 8 15 16 8 11
13 13 11 10 10 11 9 7 8 7 7 4 3 1 0 2 3 5 9 5 9 11 3 7 8 5 18 6 4 4 5 5 3 5 3 4 6 4 5 3 2 2 3 3 3 9 13
12 11 10 10 9 9 8 7 7 7 8 5 4 4 1 1 2 5 4 7 3 4 6 5 5 8 4 3 4 4 4 5 3 5 6 6 6 5 3 6 7 6 3 10 1 5 15
11 11 10 10 9 9 9 9 8 7 7 3 6 1 1 3 3 6 2 4 7 4 3 7 14 10 10 3 3 3 3 4 1 4 4 4 4 5 4 4 2 4 15 6 4 6 3
12 11 11 11 11 10 9 8 8 7 6 2 8 4 2 4 12 11 11 8 8 3 2 12 6 5 6 5 3 3 3 2 4 3 0 4 3 2 3 4 2 22 5 5 8 17 15
11 11 11 10 9 8 9 8 6 5 3 5 7 3 1 7 7 14 15 14 16 13 12 7 2 2 2 3 1 2 3 3 2 2 4 5 2 5 3 5 5 22 25 26 24 24 22
Wind_Direction
3 360 356 353 352 350 344 331 326 324 321 317 314 311 312 308 305 302 299 300 300 300 302 301 298 295 284 250 226 41 147 175 172 158 161 167 88 109 176 326 94 181 270 311 248 318 153
359 359 356 353 353 349 347 341 331 325 324 318 310 305 304 302 301 298 296 294 291 292 293 290 290 291 269 259 212 167 154 188 183 178 205 181 84 176 153 267 106 275 292 9 132 173 138
360 356 351 350 350 351 346 342 336 331 326 325 318 306 302 302 297 293 291 287 284 283 283 282 280 278 259 227 190 156 165 194 197 214 189 86 343 324 154 279 254 209 339 25 23 71 133
0 356 353 349 346 346 344 341 335 330 326 323 322 315 302 302 297 292 288 281 277 273 272 277 274 269 252 211 195 187 172 177 180 198 216 261 297 283 237 269 13 30 40 35 300 44 124
356 353 350 346 343 343 339 338 335 332 326 322 320 316 308 300 297 292 289 280 269 262 264 262 264 256 258 212 213 190 203 166 151 214 256 290 294 190 175 93 33 16 113 340 326 329 312
349 347 344 340 339 338 337 334 331 329 325 320 318 316 310 305 298 297 286 274 255 248 249 253 255 284 243 129 216 212 209 214 234 299 298 131 130 59 46 74 192 86 311 297 243 224 199
343 342 338 337 337 336 332 330 326 325 323 318 317 314 311 306 300 300 250 204 168 164 235 225 254 248 47 5 191 211 216 210 222 240 205 21 74 233 243 212 198 161 229 224 282 263 210
331 331 333 331 330 328 327 324 324 322 320 317 315 311 308 305 297 290 220 98 90 2 301 253 251 258 256 272 295 210 202 195 176 198 98 12 261 234 224 208 230 239 224 241 283 258 219
330 326 322 319 319 319 319 319 319 318 316 315 314 310 305 304 296 259 166 119 24 242 228 274 235 240 243 234 224 225 199 197 148 168 161 174 233 19 263 315 309 240 195 210 216 213 356
337 335 328 321 313 311 313 312 312 313 313 312 312 308 304 305 272 203 147 58 344 169 53 268 217 241 204 180 250 223 201 189 252 193 178 240 282 263 293 288 156 295 218 255 225 104 191
339 335 333 331 321 310 304 301 303 306 308 309 308 303 299 283 257 193 167 39 154 152 341 176 189 188 175 172 156 196 205 193 166 179 116 237 201 174 244 243 158 248 281 233 285 96 98
351 346 340 336 330 320 305 298 295 298 301 302 301 298 287 283 256 203 201 143 144 47 253 244 144 155 138 178 185 143 171 190 196 174 101 234 265 181 237 319 219 268 248 44 57 68 14
349 346 342 338 333 328 319 305 299 293 295 294 294 289 281 260 218 195 200 153 55 153 332 189 183 159 157 153 209 135 144 155 151 146 246 327 272 250 203 309 333 102 65 7 9 16 215
351 346 343 339 335 336 333 326 307 296 294 289 292 280 269 250 226 209 171 58 165 233 252 302 96 87 174 139 222 130 106 172 218 105 128 191 316 174 181 185 207 207 158 154 188 185 253
340 345 345 344 342 338 336 335 319 300 299 291 297 282 271 235 209 194 174 115 206 212 288 352 7 118 244 218 167 135 179 194 198 169 169 145 261 282 195 130 128 323 179 182 102 27 78
337 337 344 340 334 333 332 332 324 304 304 302 305 294 272 216 189 179 96 225 238 231 321 2 53 115 190 220 164 151 171 202 208 187 166 209 310 238 233 151 64 162 169 86 13 129 206
342 331 338 341 336 334 336 336 332 314 314 309 309 300 289 169 165 165 174 222 267 270 6 25 332 302 221 204 188 168 212 278 202 189 182 137 130 269 72 170 190 79 27 55 112 107 160
347 344 341 335 338 339 340 341 338 330 333 312 303 45 153 152 109 93 159 196 306 283 30 328 235 232 238 327 213 194 206 228 190 151 162 201 167 239 220 252 205 160 185 158 131 215 141
346 352 347 333 336 339 341 340 340 343 355 1 349 4 160 172 143 240 266 259 252 278 233 254 271 232 43 345 327 195 205 239 207 159 173 174 213 296 331 355 31 183 201 140 116 96 191
340 340 341 341 331 339 345 342 342 344 346 348 318 79 146 218 251 136 164 249 235 255 245 210 244 228 355 293 203 280 271 270 190 191 182 148 133 166 202 205 168 192 186 164 119 126 172
343 338 337 343 339 342 347 343 350 349 345 338 286 294 52 210 276 189 171 240 237 303 248 199 230 204 172 242 281 227 246 313 53 299 160 147 188 176 220 211 202 220 294 176 174 174 166
341 337 341 352 354 350 352 353 355 358 357 59 53 -0 352 286 271 186 159 242 232 242 227 271 215 205 166 220 200 240 214 203 156 344 128 344 202 159 92 203 214 75 18 63 18 72 265
342 340 340 347 348 355 358 353 351 4 22 115 4 303 294 296 352 109 198 259 264 291 237 232 228 310 214 230 225 228 212 243 198 178 135 136 135 114 224 201 135 36 339 95 92 28 136
344 345 346 346 350 351 353 353 344 355 17 36 345 3 348 276 309 308 309 297 273 269 245 274 242 176 264 288 194 194 114 301 212 217 169 125 104 89 148 59 78 193 115 100 82 40 2
344 344 345 344 343 348 354 346 328 342 343 323 287 238 25 272 287 314 323 300 316 328 266 251 256 244 280 214 74 49 348 355 287 50 199 159 126 81 122 76 75 193 277 332 93 20 5
342 345 345 344 343 347 348 345 342 331 332 328 234 197 279 114 212 332 308 331 325 318 323 292 332 0 163 90 92 127 178 223 265 7 79 72 71 112 105 120 186 225 315 323 338 27 347
338 339 340 340 341 337 330 327 327 327 324 332 172 86 305 281 259 344 349 300 336 334 253 302 337 340 14 69 92 134 208 206 98 67 337 15 22 110 105 109 279 47 317 323 113 194 93
339 336 330 327 326 326 324 321 323 326 322 135 137 79 40 259 278 271 269 277 326 344 10 313 343 345 4 60 104 198 127 150 84 29 51 94 70 94 84 83 132 343 345 148 140 117 98
336 340 343 343 344 343 335 328 327 333 341 130 141 27 326 260 275 298 266 266 284 292 288 311 310 287 285 71 35 120 64 53 129 122 350 33 144 131 100 133 337 47 74 99 99 86 76